Weather in Štip

North Macedonia     41°45′08″N   22°11′24″E
temp.,
°C
wind,
m/s
gust,
m/s
humid.,
%
clouds,
%
prec.,
mm/h
press.,
hPa
HPBL,
m
14 june, mon
mon1423:00+12n23601 0.0 101838
02:00+10nnw23754 0.0 101763
05:00+8nnw22852 0.0 101722
08:00+16nnw675416 0.0 1016988
11:00+19nnw884175 0.4 10152298
14:00+19nnw983989 0.5 10142331
17:00+18nnw9844100 0.1 10141790
20:00+13nnw5967100 0.3 1015258
15 june, tue
tue1523:00+9n238353 0.1 101760
02:00+7nw229270 0.1 101826
05:00+6ne019497 0.0 101812
08:00+12nw34734 0.0 1019491
11:00+18nw4547100 0.0 10161755
14:00+21nw663861 0.0 10142280
17:00+19nw784596 0.0 10151287
20:00+14nw48625 0.0 1015292
16 june, wed
wed1623:00+10nw11855 0.0 101713
02:00+9ne11900 0.0 101712
05:00+9e11912 0.0 101710
08:00+15nnw35690 0.0 1016415
11:00+22nnw664818 0.0 10151532
14:00+25nw654067 0.0 10132230
17:00+23nw564646 0.1 10141366
20:00+19nw34620 0.1 101563
17 june, thu
thu1723:00+15ene11800 0.0 101611
02:00+14nne11850 0.0 101710
05:00+13ne11860 0.0 101710
08:00+18nw22640 0.0 1018347
11:00+24nw34412 0.0 10171610
14:00+27nw44320 0.0 10152280
17:00+27nnw44332 0.0 10152522
20:00+21ene32550 0.0 101615
18 june, fri
fri1823:00+18ene21680 0.0 101711
02:00+16ese00770 0.0 101711
05:00+14nnw00825 0.0 101711
08:00+19nw2265100 0.0 1017246
11:00+26wnw464589 0.1 10151655
14:00+27n8839100 0.1 10142060
17:00+19nnw51272100 0.4 1017874
20:00+16w118899 1.3 101720